Flag for U.S.A. Weather past 2 weeks in Olympia, Washington, U.S.A.

Now
42 °F

Fog.


Feels Like: 42 °F
Forecast: 48 / 65 °F
Wind: No wind

Location: Olympia Airport

Current Time: Oct 1, 2014 at 8:33:36 AM

Latest Report: Oct 1, 2014 at 7:54 AM


Visibility: 2 mi

Pressure: 30.22 "Hg

Humidity: 100%

Dew point: 42 °F

Location of OlympiaLocation

Historic Weather in Olympia — Graph

°F

Olympia temperature yesterday

Maximum temperature yesterday: 67 °F (at 2:54 PM)
Minimum temperature yesterday: 51 °F (at 11:54 PM)
Average temperature yesterday: 58 °F

Past Weeks' High & Low Weather Summary

 TemperatureHumidityPressure
High78 °F (Sep 21, 2:54 PM)100% (Sep 17, 6:59 AM)30.22 "Hg (Sep 17, 6:59 AM)
Low42 °F (Oct 1, 6:54 AM)45% (Sep 21, 2:54 PM)29.69 "Hg (Sep 23, 10:54 PM)
Average60 °F83%29.94 "Hg
* Reported Sep 16 6:58 AM — Oct 1 6:54 AM, Olympia, Weather by CustomWeather, © 2014

Note: Actual official high and low records may vary slightly from our data, if they occured in-between our weather recording intervals... More about our weather records

Advertising

Olympia weather history for previous 24 hours

 ConditionsComfort  
Time TempWeatherWind HumidityBarometerVisibility
6:54 AM
Oct 1
42 °FFog.No wind96%30.22 "Hg0 mi
5:54 AM43 °FFog.No wind100%30.21 "Hg0 mi
5:02 AM44 °FFog.No wind96%30.20 "Hg1 mi
4:54 AM43 °FFog.No wind100%30.20 "Hg0 mi
3:54 AM47 °FFog.No wind97%30.19 "Hg2 mi
2:54 AM47 °FPartly cloudy.No wind97%30.20 "Hg7 mi
1:54 AM49 °FFog.No wind93%30.19 "Hg6 mi
12:54 AM51 °FPassing clouds.No wind89%30.18 "Hg9 mi
11:54 PM
Sep 30
51 °FPassing clouds.No wind89%30.17 "Hg9 mi
10:54 PM52 °FOvercast.No wind89%30.16 "Hg10 mi
9:54 PM54 °FPassing clouds.No wind83%30.16 "Hg10 mi
8:54 PM56 °FClear.7 mph77%30.14 "Hg10 mi
7:54 PM55 °FClear.6 mph77%30.14 "Hg10 mi
6:54 PM60 °FSunny.6 mph65%30.11 "Hg10 mi
5:54 PM64 °FSunny.9 mph54%30.10 "Hg10 mi
4:54 PM64 °FPartly sunny.13 mph58%30.10 "Hg10 mi
3:54 PM64 °FScattered clouds.10 mph56%30.09 "Hg10 mi
2:54 PM67 °FPassing clouds.8 mph49%30.09 "Hg10 mi
1:54 PM65 °FPartly sunny.10 mph52%30.10 "Hg10 mi
12:54 PM66 °FPartly sunny.14 mph50%30.10 "Hg10 mi
11:54 AM66 °FScattered clouds.9 mph52%30.10 "Hg10 mi
10:54 AM64 °FScattered clouds.9 mph58%30.09 "Hg10 mi
9:54 AM60 °FPassing clouds.9 mph72%30.08 "Hg10 mi
8:54 AM58 °FPassing clouds.14 mph78%30.07 "Hg10 mi
Weather by CustomWeather, © 2014

See weather overviewHow to use our weather pages